Flag for U.S.A. Weather past 2 weeks in St. Croix Falls, Wisconsin, U.S.A.

Now
37 °F

Cloudy.


Feels Like: 26 °F
Forecast: 32 / 38 °F
Wind: 21 mph from West

Location: L O Simenstad Municipal Airport

Current Time: Apr 21, 2015 at 10:40:02 AM

Latest Report: Apr 21, 2015 at 10:15 AM


Visibility: 10 mi

Pressure: 29.56 "Hg

Humidity: 71%

Dew point: 28 °F

Location of St. Croix FallsLocation

Historic Weather in St. Croix Falls — Graph

°F

St. Croix Falls temperature yesterday

Maximum temperature yesterday: 45 °F (at 12:15 AM)
Minimum temperature yesterday: 35 °F (at 11:55 PM)
Average temperature yesterday: 40 °F

Past Weeks' High & Low Weather Summary

 TemperatureHumidityPressure
High74 °F (Apr 12, 4:15 PM)100% (Apr 6, 9:15 AM)30.30 "Hg (Apr 6, 9:15 AM)
Low27 °F (Apr 11, 4:15 AM)15% (Apr 15, 6:15 PM)29.49 "Hg (Apr 20, 5:15 AM)
Average49 °F63%29.97 "Hg
* Reported Apr 6 9:15 AM — Apr 21 9:15 AM, St. Croix Falls, Weather by CustomWeather, © 2015

Note: Actual official high and low records may vary slightly from our data, if they occured in-between our weather recording intervals... More about our weather records

Advertising

St. Croix Falls weather history for previous 24 hours

 ConditionsComfort  
Time TempWeatherWind HumidityBarometerVisibility
9:15 AM
Tue, Apr 21
37 °FMostly cloudy.22 mph66%29.54 "Hg10 mi
8:55 AM36 °FMostly cloudy.20 mph68%29.54 "Hg10 mi
8:35 AM35 °FOvercast.15 mph74%29.54 "Hg10 mi
8:15 AM35 °FLight snow. Overcast.16 mph74%29.55 "Hg7 mi
7:55 AM34 °FLight snow. Mostly cloudy.16 mph77%29.54 "Hg10 mi
7:35 AM34 °FLight snow. Cloudy.17 mph77%29.54 "Hg7 mi
7:15 AM34 °FMostly cloudy.15 mph75%29.54 "Hg10 mi
6:55 AM33 °FLight snow. Mostly cloudy.12 mph76%29.54 "Hg10 mi
6:35 AM33 °FLight snow. Overcast.15 mph75%29.54 "Hg10 mi
6:15 AM33 °FMostly cloudy.17 mph72%29.53 "Hg10 mi
5:55 AM34 °FLight snow. Mostly cloudy.20 mph71%29.53 "Hg10 mi
5:35 AM35 °FMostly cloudy.17 mph72%29.52 "Hg10 mi
5:15 AM35 °FMostly cloudy.18 mph71%29.52 "Hg10 mi
4:55 AM35 °FMostly cloudy.17 mph73%29.51 "Hg10 mi
4:35 AM35 °FMostly cloudy.17 mph73%29.52 "Hg10 mi
4:15 AM35 °FMostly cloudy.15 mph73%29.51 "Hg10 mi
3:55 AM35 °FMostly cloudy.16 mph71%29.51 "Hg10 mi
3:15 AM35 °FMostly cloudy.12 mph77%29.50 "Hg10 mi
2:55 AM35 °FOvercast.13 mph79%29.51 "Hg10 mi
2:35 AM34 °FLight snow. Overcast.14 mph84%29.51 "Hg10 mi
2:15 AM34 °FLight snow. Overcast.13 mph89%29.51 "Hg10 mi
1:55 AM34 °FLight snow. Mostly cloudy.13 mph91%29.52 "Hg5 mi
1:35 AM34 °FLight snow. Mostly cloudy.16 mph89%29.53 "Hg7 mi
1:15 AM34 °FLight snow. Overcast.13 mph87%29.53 "Hg7 mi
12:55 AM35 °FOvercast.14 mph81%29.53 "Hg10 mi
12:35 AM36 °FOvercast.15 mph80%29.53 "Hg10 mi
12:15 AM35 °FOvercast.13 mph87%29.52 "Hg10 mi
11:55 PM
Mon, Apr 20
35 °FMostly cloudy.10 mph87%29.53 "Hg7 mi
11:15 PM35 °FMostly cloudy.13 mph86%29.53 "Hg10 mi
10:55 PM36 °FLight rain. Mostly cloudy.13 mph87%29.53 "Hg10 mi
10:15 PM37 °FOvercast.20 mph80%29.53 "Hg7 mi
9:55 PM38 °FOvercast.16 mph72%29.52 "Hg10 mi
9:15 PM38 °FOvercast.12 mph74%29.53 "Hg10 mi
8:55 PM38 °FMore clouds than sun.14 mph76%29.53 "Hg10 mi
8:15 PM37 °FMore clouds than sun.14 mph79%29.53 "Hg10 mi
7:55 PM39 °FMostly cloudy.22 mph70%29.53 "Hg10 mi
7:35 PM40 °FMostly cloudy.15 mph67%29.52 "Hg10 mi
7:15 PM40 °FMostly cloudy.18 mph63%29.52 "Hg10 mi
6:55 PM41 °FOvercast.13 mph59%29.51 "Hg10 mi
6:35 PM41 °FOvercast.12 mph59%29.50 "Hg10 mi
6:15 PM41 °FMostly cloudy.15 mph58%29.51 "Hg10 mi
5:55 PM40 °FOvercast.18 mph57%29.51 "Hg10 mi
5:35 PM40 °FOvercast.20 mph57%29.51 "Hg10 mi
5:15 PM40 °FMore clouds than sun.22 mph59%29.52 "Hg10 mi
4:15 PM40 °FOvercast.20 mph60%29.51 "Hg10 mi
3:55 PM40 °FMostly cloudy.18 mph59%29.50 "Hg10 mi
3:35 PM41 °FMostly cloudy.18 mph59%29.50 "Hg10 mi
3:15 PM41 °FOvercast.24 mph58%29.50 "Hg10 mi
2:55 PM41 °FMostly cloudy.17 mph59%29.50 "Hg10 mi
2:35 PM41 °FMostly cloudy.16 mph61%29.50 "Hg10 mi
2:15 PM40 °FOvercast.14 mph65%29.50 "Hg10 mi
1:55 PM40 °FOvercast.20 mph63%29.50 "Hg10 mi
1:35 PM39 °FOvercast.14 mph64%29.50 "Hg10 mi
1:15 PM40 °FMostly cloudy.15 mph63%29.50 "Hg10 mi
12:55 PM39 °FOvercast.21 mph67%29.51 "Hg10 mi
12:35 PM38 °FOvercast.16 mph70%29.51 "Hg10 mi
12:15 PM39 °FOvercast.15 mph70%29.50 "Hg10 mi
11:55 AM39 °FMostly cloudy.18 mph69%29.51 "Hg10 mi
11:35 AM38 °FOvercast.15 mph71%29.51 "Hg10 mi
11:15 AM38 °FOvercast.16 mph72%29.52 "Hg10 mi
10:55 AM37 °FOvercast.12 mph75%29.51 "Hg10 mi
10:35 AM37 °FOvercast.18 mph75%29.51 "Hg10 mi
10:15 AM37 °FOvercast.18 mph76%29.51 "Hg10 mi
Weather by CustomWeather, © 2015

See weather overviewHow to use our weather pages